Year,Month,Day,Hour,Minute,Value (Times are PST for temperature in C)
2007,05,22,00,00,8.80
2007,05,22,00,01,8.80
2007,05,22,00,02,8.80
2007,05,22,00,03,8.80
2007,05,22,00,04,8.70
2007,05,22,00,05,8.70
2007,05,22,00,06,8.70
2007,05,22,00,07,8.70
2007,05,22,00,08,8.70
2007,05,22,00,09,8.70
2007,05,22,00,10,8.70
2007,05,22,00,11,8.60
2007,05,22,00,12,8.60
2007,05,22,00,13,8.60
2007,05,22,00,14,8.60
2007,05,22,00,15,8.60
2007,05,22,00,16,8.60
2007,05,22,00,17,8.60
2007,05,22,00,18,8.60
2007,05,22,00,19,8.60
2007,05,22,00,20,8.60
2007,05,22,00,21,8.60
2007,05,22,00,22,8.60
2007,05,22,00,23,8.60
2007,05,22,00,24,8.60
2007,05,22,00,25,8.60
2007,05,22,00,26,8.60
2007,05,22,00,27,8.60
2007,05,22,00,28,8.70
2007,05,22,00,29,8.70
2007,05,22,00,30,8.60
2007,05,22,00,31,8.60
2007,05,22,00,32,8.60
2007,05,22,00,33,8.60
2007,05,22,00,34,8.60
2007,05,22,00,35,8.60
2007,05,22,00,36,8.60
2007,05,22,00,37,8.60
2007,05,22,00,38,8.60
2007,05,22,00,39,8.60
2007,05,22,00,40,8.60
2007,05,22,00,41,8.50
2007,05,22,00,42,8.50
2007,05,22,00,43,8.50
2007,05,22,00,44,8.50
2007,05,22,00,45,8.50
2007,05,22,00,46,8.50
2007,05,22,00,47,8.50
2007,05,22,00,48,8.50
2007,05,22,00,49,8.50
2007,05,22,00,50,8.40
2007,05,22,00,51,8.40
2007,05,22,00,52,8.40
2007,05,22,00,53,8.40
2007,05,22,00,54,8.40
2007,05,22,00,55,8.40
2007,05,22,00,56,8.40
2007,05,22,00,57,8.40
2007,05,22,00,58,8.40
2007,05,22,00,59,8.40
2007,05,22,01,00,8.40
2007,05,22,01,01,8.40
2007,05,22,01,02,8.40
2007,05,22,01,03,8.40
2007,05,22,01,04,8.40
2007,05,22,01,05,8.40
2007,05,22,01,06,8.40
2007,05,22,01,07,8.40
2007,05,22,01,08,8.30
2007,05,22,01,09,8.30
2007,05,22,01,10,8.30
2007,05,22,01,11,8.30
2007,05,22,01,12,8.30
2007,05,22,01,13,8.40
2007,05,22,01,14,8.40
2007,05,22,01,15,8.30
2007,05,22,01,16,8.30
2007,05,22,01,17,8.30
2007,05,22,01,18,8.30
2007,05,22,01,19,8.30
2007,05,22,01,20,8.30
2007,05,22,01,21,8.30
2007,05,22,01,22,8.30
2007,05,22,01,23,8.30
2007,05,22,01,24,8.30
2007,05,22,01,25,8.30
2007,05,22,01,26,8.30
2007,05,22,01,27,8.30
2007,05,22,01,28,8.30
2007,05,22,01,29,8.30
2007,05,22,01,30,8.30
2007,05,22,01,31,8.20
2007,05,22,01,32,8.20
2007,05,22,01,33,8.20
2007,05,22,01,34,8.20
2007,05,22,01,35,8.20
2007,05,22,01,36,8.20
2007,05,22,01,37,8.20
2007,05,22,01,38,8.20
2007,05,22,01,39,8.20
2007,05,22,01,40,8.10
2007,05,22,01,41,8.10
2007,05,22,01,42,8.10
2007,05,22,01,43,8.10
2007,05,22,01,44,8.10
2007,05,22,01,45,8.10
2007,05,22,01,46,8.00
2007,05,22,01,47,8.00
2007,05,22,01,48,8.00
2007,05,22,01,49,7.90
2007,05,22,01,50,7.90
2007,05,22,01,51,7.90
2007,05,22,01,52,7.90
2007,05,22,01,53,7.90
2007,05,22,01,54,7.80
2007,05,22,01,55,7.80
2007,05,22,01,56,7.80
2007,05,22,01,57,7.80
2007,05,22,01,58,7.70
2007,05,22,01,59,7.70
2007,05,22,02,00,7.70
2007,05,22,02,01,7.70
2007,05,22,02,02,7.70
2007,05,22,02,03,7.70
2007,05,22,02,04,7.70
2007,05,22,02,05,7.70
2007,05,22,02,06,7.60
2007,05,22,02,07,7.60
2007,05,22,02,08,7.60
2007,05,22,02,09,7.60
2007,05,22,02,10,7.50
2007,05,22,02,11,7.50
2007,05,22,02,12,7.50
2007,05,22,02,13,7.40
2007,05,22,02,14,7.40
2007,05,22,02,15,7.30
2007,05,22,02,16,7.30
2007,05,22,02,17,7.30
2007,05,22,02,18,7.20
2007,05,22,02,19,7.20
2007,05,22,02,20,7.20
2007,05,22,02,21,7.20
2007,05,22,02,22,7.20
2007,05,22,02,23,7.10
2007,05,22,02,24,7.10
2007,05,22,02,25,7.10
2007,05,22,02,26,7.10
2007,05,22,02,27,7.10
2007,05,22,02,28,7.10
2007,05,22,02,29,7.00
2007,05,22,02,30,7.00
2007,05,22,02,31,6.90
2007,05,22,02,32,6.90
2007,05,22,02,33,6.90
2007,05,22,02,34,6.90
2007,05,22,02,35,6.90
2007,05,22,02,36,6.90
2007,05,22,02,37,6.90
2007,05,22,02,38,6.90
2007,05,22,02,39,6.90
2007,05,22,02,40,6.90
2007,05,22,02,41,6.90
2007,05,22,02,42,6.90
2007,05,22,02,43,6.80
2007,05,22,02,44,6.80
2007,05,22,02,45,6.80
2007,05,22,02,46,6.80
2007,05,22,02,47,6.70
2007,05,22,02,48,6.70
2007,05,22,02,49,6.70
2007,05,22,02,50,6.60
2007,05,22,02,51,6.60
2007,05,22,02,52,6.60
2007,05,22,02,53,6.60
2007,05,22,02,54,6.60
2007,05,22,02,55,6.50
2007,05,22,02,56,6.50
2007,05,22,02,57,6.50
2007,05,22,02,58,6.40
2007,05,22,02,59,6.40
2007,05,22,03,00,6.40
2007,05,22,03,01,6.40
2007,05,22,03,02,6.30
2007,05,22,03,03,6.30
2007,05,22,03,04,6.30
2007,05,22,03,05,6.30
2007,05,22,03,06,6.30
2007,05,22,03,07,6.30
2007,05,22,03,08,6.30
2007,05,22,03,09,6.30
2007,05,22,03,10,6.30
2007,05,22,03,11,6.20
2007,05,22,03,12,6.20
2007,05,22,03,13,6.20
2007,05,22,03,14,6.20
2007,05,22,03,15,6.20
2007,05,22,03,16,6.10
2007,05,22,03,17,6.20
2007,05,22,03,18,6.10
2007,05,22,03,19,6.10
2007,05,22,03,20,6.10
2007,05,22,03,21,6.10
2007,05,22,03,22,6.10
2007,05,22,03,23,6.10
2007,05,22,03,24,6.10
2007,05,22,03,25,6.10
2007,05,22,03,26,6.10
2007,05,22,03,27,6.10
2007,05,22,03,28,6.10
2007,05,22,03,29,6.10
2007,05,22,03,30,6.10
2007,05,22,03,31,6.10
2007,05,22,03,32,6.10
2007,05,22,03,33,6.10
2007,05,22,03,34,6.10
2007,05,22,03,35,6.10
2007,05,22,03,36,6.10
2007,05,22,03,37,6.00
2007,05,22,03,38,6.00
2007,05,22,03,39,5.90
2007,05,22,03,40,5.80
2007,05,22,03,41,5.70
2007,05,22,03,42,5.60
2007,05,22,03,43,5.50
2007,05,22,03,44,5.50
2007,05,22,03,45,5.40
2007,05,22,03,46,5.40
2007,05,22,03,47,5.30
2007,05,22,03,48,5.30
2007,05,22,03,49,5.30
2007,05,22,03,50,5.30
2007,05,22,03,51,5.20
2007,05,22,03,52,5.20
2007,05,22,03,53,5.20
2007,05,22,03,54,5.20
2007,05,22,03,55,5.20
2007,05,22,03,56,5.20
2007,05,22,03,57,5.20
2007,05,22,03,58,5.20
2007,05,22,03,59,5.20
2007,05,22,04,00,5.20
2007,05,22,04,01,5.10
2007,05,22,04,02,5.10
2007,05,22,04,03,5.20
2007,05,22,04,04,5.20
2007,05,22,04,05,5.20
2007,05,22,04,06,5.20
2007,05,22,04,07,5.20
2007,05,22,04,08,5.20
2007,05,22,04,09,5.20
2007,05,22,04,10,5.20
2007,05,22,04,11,5.20
2007,05,22,04,12,5.10
2007,05,22,04,13,5.10
2007,05,22,04,14,5.10
2007,05,22,04,15,5.10
2007,05,22,04,16,5.10
2007,05,22,04,17,5.10
2007,05,22,04,18,5.00
2007,05,22,04,19,5.00
2007,05,22,04,20,5.00
2007,05,22,04,21,4.90
2007,05,22,04,22,4.90
2007,05,22,04,23,4.90
2007,05,22,04,24,4.90
2007,05,22,04,25,4.90
2007,05,22,04,26,4.90
2007,05,22,04,27,4.90
2007,05,22,04,28,5.00
2007,05,22,04,29,5.00
2007,05,22,04,30,5.00
2007,05,22,04,31,5.00
2007,05,22,04,32,5.00
2007,05,22,04,33,5.00
2007,05,22,04,34,5.00
2007,05,22,04,35,4.90
2007,05,22,04,36,4.90
2007,05,22,04,37,4.90
2007,05,22,04,38,4.90
2007,05,22,04,39,4.90
2007,05,22,04,40,4.90
2007,05,22,04,41,4.90
2007,05,22,04,42,4.90
2007,05,22,04,43,4.90
2007,05,22,04,44,4.80
2007,05,22,04,45,4.80
2007,05,22,04,46,4.80
2007,05,22,04,47,4.80
2007,05,22,04,48,4.80
2007,05,22,04,49,4.80
2007,05,22,04,50,4.70
2007,05,22,04,51,4.70
2007,05,22,04,52,4.70
2007,05,22,04,53,4.80
2007,05,22,04,54,4.80
2007,05,22,04,55,4.90
2007,05,22,04,56,5.00
2007,05,22,04,57,5.00
2007,05,22,04,58,5.10
2007,05,22,04,59,5.10
2007,05,22,05,00,5.10
2007,05,22,05,01,5.20
2007,05,22,05,02,5.20
2007,05,22,05,03,5.20
2007,05,22,05,04,5.20
2007,05,22,05,05,5.10
2007,05,22,05,06,5.10
2007,05,22,05,07,5.00
2007,05,22,05,08,5.00
2007,05,22,05,09,4.90
2007,05,22,05,10,4.90
2007,05,22,05,11,4.90
2007,05,22,05,12,4.80
2007,05,22,05,13,4.80
2007,05,22,05,14,4.80
2007,05,22,05,15,4.70
2007,05,22,05,16,4.70
2007,05,22,05,17,4.70
2007,05,22,05,18,4.60
2007,05,22,05,19,4.60
2007,05,22,05,20,4.70
2007,05,22,05,21,4.70
2007,05,22,05,22,4.70
2007,05,22,05,23,4.70
2007,05,22,05,24,4.70
2007,05,22,05,25,4.70
2007,05,22,05,26,4.70
2007,05,22,05,27,4.70
2007,05,22,05,28,4.70
2007,05,22,05,29,4.70
2007,05,22,05,30,4.60
2007,05,22,05,31,4.60
2007,05,22,05,32,4.60
2007,05,22,05,33,4.60
2007,05,22,05,34,4.60
2007,05,22,05,35,4.60
2007,05,22,05,36,4.60
2007,05,22,05,37,4.60
2007,05,22,05,38,4.60
2007,05,22,05,39,4.60
2007,05,22,05,40,4.60
2007,05,22,05,41,4.60
2007,05,22,05,42,4.60
2007,05,22,05,43,4.60
2007,05,22,05,44,4.60
2007,05,22,05,45,4.70
2007,05,22,05,46,4.70
2007,05,22,05,47,4.80
2007,05,22,05,48,4.80
2007,05,22,05,49,4.80
2007,05,22,05,50,4.80
2007,05,22,05,51,4.80
2007,05,22,05,52,4.70
2007,05,22,05,53,4.70
2007,05,22,05,54,4.70
2007,05,22,05,55,4.80
2007,05,22,05,56,4.80
2007,05,22,05,57,4.80
2007,05,22,05,58,4.70
2007,05,22,05,59,4.60
2007,05,22,06,00,4.60
2007,05,22,06,01,4.50
2007,05,22,06,02,4.40
2007,05,22,06,03,4.40
2007,05,22,06,04,4.50
2007,05,22,06,05,4.70
2007,05,22,06,06,4.80
2007,05,22,06,07,4.90
2007,05,22,06,08,4.90
2007,05,22,06,09,4.90
2007,05,22,06,10,5.00
2007,05,22,06,11,5.00
2007,05,22,06,12,4.90
2007,05,22,06,13,4.90
2007,05,22,06,14,4.90
2007,05,22,06,15,4.90
2007,05,22,06,16,4.90
2007,05,22,06,17,4.90
2007,05,22,06,18,4.90
2007,05,22,06,19,4.90
2007,05,22,06,20,4.90
2007,05,22,06,21,5.00
2007,05,22,06,22,5.00
2007,05,22,06,23,5.00
2007,05,22,06,24,5.10
2007,05,22,06,25,5.10
2007,05,22,06,26,5.10
2007,05,22,06,27,5.10
2007,05,22,06,28,5.20
2007,05,22,06,29,5.20
2007,05,22,06,30,5.30
2007,05,22,06,31,5.30
2007,05,22,06,32,5.40
2007,05,22,06,33,5.40
2007,05,22,06,34,5.50
2007,05,22,06,35,5.70
2007,05,22,06,36,5.80
2007,05,22,06,37,6.00
2007,05,22,06,38,6.10
2007,05,22,06,39,6.10
2007,05,22,06,40,6.20
2007,05,22,06,41,6.20
2007,05,22,06,42,6.20
2007,05,22,06,43,6.20
2007,05,22,06,44,6.20
2007,05,22,06,45,6.20
2007,05,22,06,46,6.10
2007,05,22,06,47,6.10
2007,05,22,06,48,6.10
2007,05,22,06,49,6.10
2007,05,22,06,50,6.10
2007,05,22,06,51,6.10
2007,05,22,06,52,6.10
2007,05,22,06,53,6.20
2007,05,22,06,54,6.20
2007,05,22,06,55,6.20
2007,05,22,06,56,6.20
2007,05,22,06,57,6.20
2007,05,22,06,58,6.20
2007,05,22,06,59,6.20
2007,05,22,07,00,6.20
2007,05,22,07,01,6.30
2007,05,22,07,02,6.30
2007,05,22,07,03,6.30
2007,05,22,07,04,6.30
2007,05,22,07,05,6.30
2007,05,22,07,06,6.30
2007,05,22,07,07,6.40
2007,05,22,07,08,6.40
2007,05,22,07,09,6.50
2007,05,22,07,10,6.50
2007,05,22,07,11,6.60
2007,05,22,07,12,6.60
2007,05,22,07,13,6.60
2007,05,22,07,14,6.60
2007,05,22,07,15,6.70
2007,05,22,07,16,6.70
2007,05,22,07,17,6.70
2007,05,22,07,18,6.80
2007,05,22,07,19,6.80
2007,05,22,07,20,6.90
2007,05,22,07,21,6.90
2007,05,22,07,22,6.90
2007,05,22,07,23,7.00
2007,05,22,07,24,7.00
2007,05,22,07,25,7.10
2007,05,22,07,26,7.10
2007,05,22,07,27,7.10
2007,05,22,07,28,7.20
2007,05,22,07,29,7.20
2007,05,22,07,30,7.20
2007,05,22,07,31,7.30
2007,05,22,07,32,7.40
2007,05,22,07,33,7.50
2007,05,22,07,34,7.50
2007,05,22,07,35,7.60
2007,05,22,07,36,7.70
2007,05,22,07,37,7.80
2007,05,22,07,38,7.80
2007,05,22,07,39,7.90
2007,05,22,07,40,7.90
2007,05,22,07,41,8.00
2007,05,22,07,42,8.10
2007,05,22,07,43,8.20
2007,05,22,07,44,8.20
2007,05,22,07,45,8.30
2007,05,22,07,46,8.30
2007,05,22,07,47,8.30
2007,05,22,07,48,8.30
2007,05,22,07,49,8.40
2007,05,22,07,50,8.50
2007,05,22,07,51,8.60
2007,05,22,07,52,8.60
2007,05,22,07,53,8.70
2007,05,22,07,54,8.80
2007,05,22,07,55,8.80
2007,05,22,07,56,8.80
2007,05,22,07,57,8.90
2007,05,22,07,58,8.90
2007,05,22,07,59,8.90
2007,05,22,08,00,8.90
2007,05,22,08,01,8.90
2007,05,22,08,02,9.00
2007,05,22,08,03,9.00
2007,05,22,08,04,9.00
2007,05,22,08,05,9.10
2007,05,22,08,06,9.10
2007,05,22,08,07,9.20
2007,05,22,08,08,9.20
2007,05,22,08,09,9.20
2007,05,22,08,10,9.20
2007,05,22,08,11,9.30
2007,05,22,08,12,9.30
2007,05,22,08,13,9.20
2007,05,22,08,14,9.20
2007,05,22,08,15,9.20
2007,05,22,08,16,9.20
2007,05,22,08,17,9.20
2007,05,22,08,18,9.30
2007,05,22,08,19,9.20
2007,05,22,08,20,9.20
2007,05,22,08,21,9.10
2007,05,22,08,22,9.00
2007,05,22,08,23,8.90
2007,05,22,08,24,8.90
2007,05,22,08,25,8.80
2007,05,22,08,26,8.80
2007,05,22,08,27,8.70
2007,05,22,08,28,8.60
2007,05,22,08,29,8.60
2007,05,22,08,30,8.50
2007,05,22,08,31,8.60
2007,05,22,08,32,8.60
2007,05,22,08,33,8.60
2007,05,22,08,34,8.60
2007,05,22,08,35,8.50
2007,05,22,08,36,8.50
2007,05,22,08,37,8.50
2007,05,22,08,38,8.50
2007,05,22,08,39,8.50
2007,05,22,08,40,8.50
2007,05,22,08,41,8.40
2007,05,22,08,42,8.40
2007,05,22,08,43,8.40
2007,05,22,08,44,8.50
2007,05,22,08,45,8.50
2007,05,22,08,46,8.50
2007,05,22,08,47,8.50
2007,05,22,08,48,8.60
2007,05,22,08,49,8.60
2007,05,22,08,50,8.60
2007,05,22,08,51,8.60
2007,05,22,08,52,8.70
2007,05,22,08,53,8.70
2007,05,22,08,54,8.70
2007,05,22,08,55,8.80
2007,05,22,08,56,8.80
2007,05,22,08,57,8.80
2007,05,22,08,58,8.80
2007,05,22,08,59,8.80
2007,05,22,09,00,8.80
2007,05,22,09,01,8.80
2007,05,22,09,02,8.80
2007,05,22,09,03,8.80
2007,05,22,09,04,8.80
2007,05,22,09,05,8.90
2007,05,22,09,06,8.90
2007,05,22,09,07,8.90
2007,05,22,09,08,9.00
2007,05,22,09,09,9.00
2007,05,22,09,10,9.00
2007,05,22,09,11,9.00
2007,05,22,09,12,9.10
2007,05,22,09,13,9.00
2007,05,22,09,14,9.10
2007,05,22,09,15,9.10
2007,05,22,09,16,9.10
2007,05,22,09,17,9.10
2007,05,22,09,18,9.10
2007,05,22,09,19,9.20
2007,05,22,09,20,9.20
2007,05,22,09,21,9.30
2007,05,22,09,22,9.40
2007,05,22,09,23,9.50
2007,05,22,09,24,9.50
2007,05,22,09,25,9.50
2007,05,22,09,26,9.50
2007,05,22,09,27,9.50
2007,05,22,09,28,9.50
2007,05,22,09,29,9.50
2007,05,22,09,30,9.50
2007,05,22,09,31,9.50
2007,05,22,09,32,9.60
2007,05,22,09,33,9.70
2007,05,22,09,34,9.80
2007,05,22,09,35,9.90
2007,05,22,09,36,10.00
2007,05,22,09,37,10.10
2007,05,22,09,38,10.10
2007,05,22,09,39,10.20
2007,05,22,09,40,10.30
2007,05,22,09,41,10.30
2007,05,22,09,42,10.30
2007,05,22,09,43,10.40
2007,05,22,09,44,10.50
2007,05,22,09,45,10.50
2007,05,22,09,46,10.70
2007,05,22,09,47,10.70
2007,05,22,09,48,10.70
2007,05,22,09,49,10.80
2007,05,22,09,50,10.80
2007,05,22,09,51,10.80
2007,05,22,09,52,10.80
2007,05,22,09,53,10.70
2007,05,22,09,54,10.70
2007,05,22,09,55,10.60
2007,05,22,09,56,10.50
2007,05,22,09,57,10.40
2007,05,22,09,58,10.40
2007,05,22,09,59,10.40
2007,05,22,10,00,10.40
2007,05,22,10,01,10.50
2007,05,22,10,02,10.60
2007,05,22,10,03,10.60
2007,05,22,10,04,10.70
2007,05,22,10,05,10.70
2007,05,22,10,06,10.70
2007,05,22,10,07,10.80
2007,05,22,10,08,10.80
2007,05,22,10,09,10.70
2007,05,22,10,10,10.70
2007,05,22,10,11,10.60
2007,05,22,10,12,10.60
2007,05,22,10,13,10.60
2007,05,22,10,14,10.60
2007,05,22,10,15,10.70
2007,05,22,10,16,10.80
2007,05,22,10,17,10.80
2007,05,22,10,18,10.80
2007,05,22,10,19,10.80
2007,05,22,10,20,10.80
2007,05,22,10,21,10.80
2007,05,22,10,22,10.80
2007,05,22,10,23,10.90
2007,05,22,10,24,11.00
2007,05,22,10,25,11.10
2007,05,22,10,26,11.20
2007,05,22,10,27,11.30
2007,05,22,10,28,11.40
2007,05,22,10,29,11.40
2007,05,22,10,30,11.40
2007,05,22,10,31,11.30
2007,05,22,10,32,11.30
2007,05,22,10,33,11.30
2007,05,22,10,34,11.30
2007,05,22,10,35,11.20
2007,05,22,10,36,10.90
2007,05,22,10,37,10.70
2007,05,22,10,38,10.50
2007,05,22,10,39,10.40
2007,05,22,10,40,10.30
2007,05,22,10,41,10.30
2007,05,22,10,42,10.30
2007,05,22,10,43,10.20
2007,05,22,10,44,10.20
2007,05,22,10,45,10.30
2007,05,22,10,46,10.20
2007,05,22,10,47,10.20
2007,05,22,10,48,10.10
2007,05,22,10,49,10.10
2007,05,22,10,50,10.10
2007,05,22,10,51,10.10
2007,05,22,10,52,10.10
2007,05,22,10,53,10.10
2007,05,22,10,54,10.10
2007,05,22,10,55,10.20
2007,05,22,10,56,10.30
2007,05,22,10,57,10.40
2007,05,22,10,58,10.60
2007,05,22,10,59,10.70
2007,05,22,11,00,10.70
2007,05,22,11,01,10.80
2007,05,22,11,02,10.90
2007,05,22,11,03,10.90
2007,05,22,11,04,10.90
2007,05,22,11,05,10.90
2007,05,22,11,06,10.80
2007,05,22,11,07,10.70
2007,05,22,11,08,10.70
2007,05,22,11,09,10.70
2007,05,22,11,10,10.60
2007,05,22,11,11,10.60
2007,05,22,11,12,10.60
2007,05,22,11,13,10.50
2007,05,22,11,14,10.50
2007,05,22,11,15,10.50
2007,05,22,11,16,10.60
2007,05,22,11,17,10.60
2007,05,22,11,18,10.60
2007,05,22,11,19,10.60
2007,05,22,11,20,10.60
2007,05,22,11,21,10.70
2007,05,22,11,22,10.70
2007,05,22,11,23,10.70
2007,05,22,11,24,10.60
2007,05,22,11,25,10.60
2007,05,22,11,26,10.60
2007,05,22,11,27,10.60
2007,05,22,11,28,10.60
2007,05,22,11,29,10.60
2007,05,22,11,30,10.70
2007,05,22,11,31,10.70
2007,05,22,11,32,10.60
2007,05,22,11,33,10.60
2007,05,22,11,34,10.60
2007,05,22,11,35,10.60
2007,05,22,11,36,10.50
2007,05,22,11,37,10.50
2007,05,22,11,38,10.60
2007,05,22,11,39,10.50
2007,05,22,11,40,10.60
2007,05,22,11,41,10.60
2007,05,22,11,42,10.60
2007,05,22,11,43,10.50
2007,05,22,11,44,10.50
2007,05,22,11,45,10.50
2007,05,22,11,46,10.40
2007,05,22,11,47,10.40
2007,05,22,11,48,10.30
2007,05,22,11,49,10.30
2007,05,22,11,50,10.30
2007,05,22,11,51,10.40
2007,05,22,11,52,10.50
2007,05,22,11,53,10.60
2007,05,22,11,54,10.70
2007,05,22,11,55,10.70
2007,05,22,11,56,10.80
2007,05,22,11,57,11.00
2007,05,22,11,58,11.10
2007,05,22,11,59,11.30
2007,05,22,12,00,11.50
2007,05,22,12,01,11.70
2007,05,22,12,02,11.90
2007,05,22,12,03,12.00
2007,05,22,12,04,12.20
2007,05,22,12,05,12.30
2007,05,22,12,06,12.30
2007,05,22,12,07,12.30
2007,05,22,12,08,12.30
2007,05,22,12,09,12.30
2007,05,22,12,10,12.30
2007,05,22,12,11,12.20
2007,05,22,12,12,12.30
2007,05,22,12,13,12.40
2007,05,22,12,14,12.40
2007,05,22,12,15,12.50
2007,05,22,12,16,12.60
2007,05,22,12,17,12.60
2007,05,22,12,18,12.70
2007,05,22,12,19,12.80
2007,05,22,12,20,12.90
2007,05,22,12,21,13.00
2007,05,22,12,22,13.00
2007,05,22,12,23,13.00
2007,05,22,12,24,12.90
2007,05,22,12,25,12.90
2007,05,22,12,26,12.90
2007,05,22,12,27,12.90
2007,05,22,12,28,12.90
2007,05,22,12,29,12.90
2007,05,22,12,30,12.90
2007,05,22,12,31,12.90
2007,05,22,12,32,12.90
2007,05,22,12,33,13.00
2007,05,22,12,34,13.10
2007,05,22,12,35,13.10
2007,05,22,12,36,13.10
2007,05,22,12,37,13.20
2007,05,22,12,38,13.20
2007,05,22,12,39,13.20
2007,05,22,12,40,13.20
2007,05,22,12,41,13.20
2007,05,22,12,42,13.20
2007,05,22,12,43,13.40
2007,05,22,12,44,13.50
2007,05,22,12,45,13.60
2007,05,22,12,46,13.50
2007,05,22,12,47,13.40
2007,05,22,12,48,13.40
2007,05,22,12,49,13.30
2007,05,22,12,50,13.30
2007,05,22,12,51,13.30
2007,05,22,12,52,13.30
2007,05,22,12,53,13.40
2007,05,22,12,54,13.40
2007,05,22,12,55,13.50
2007,05,22,12,56,13.50
2007,05,22,12,57,13.60
2007,05,22,12,58,13.60
2007,05,22,12,59,13.60
2007,05,22,13,00,13.60
2007,05,22,13,01,13.50
2007,05,22,13,02,13.40
2007,05,22,13,03,13.40
2007,05,22,13,04,13.40
2007,05,22,13,05,13.50
2007,05,22,13,06,13.50
2007,05,22,13,07,13.50
2007,05,22,13,08,13.60
2007,05,22,13,09,13.60
2007,05,22,13,10,13.60
2007,05,22,13,11,13.60
2007,05,22,13,12,13.50
2007,05,22,13,13,13.50
2007,05,22,13,14,13.50
2007,05,22,13,15,13.50
2007,05,22,13,16,13.50
2007,05,22,13,17,13.50
2007,05,22,13,18,13.60
2007,05,22,13,19,13.60
2007,05,22,13,20,13.60
2007,05,22,13,21,13.70
2007,05,22,13,22,13.80
2007,05,22,13,23,13.80
2007,05,22,13,24,13.80
2007,05,22,13,25,13.80
2007,05,22,13,26,13.80
2007,05,22,13,27,13.70
2007,05,22,13,28,13.70
2007,05,22,13,29,13.60
2007,05,22,13,30,13.50
2007,05,22,13,31,13.60
2007,05,22,13,32,13.60
2007,05,22,13,33,13.70
2007,05,22,13,34,13.80
2007,05,22,13,35,13.90
2007,05,22,13,36,13.90
2007,05,22,13,37,14.00
2007,05,22,13,38,14.00
2007,05,22,13,39,13.90
2007,05,22,13,40,13.80
2007,05,22,13,41,13.80
2007,05,22,13,42,13.80
2007,05,22,13,43,13.70
2007,05,22,13,44,13.70
2007,05,22,13,45,13.60
2007,05,22,13,46,13.60
2007,05,22,13,47,13.60
2007,05,22,13,48,13.50
2007,05,22,13,49,13.30
2007,05,22,13,50,13.20
2007,05,22,13,51,13.10
2007,05,22,13,52,12.90
2007,05,22,13,53,12.80
2007,05,22,13,54,12.80
2007,05,22,13,55,12.80
2007,05,22,13,56,12.80
2007,05,22,13,57,13.00
2007,05,22,13,58,13.10
2007,05,22,13,59,13.10
2007,05,22,14,00,13.10
2007,05,22,14,01,13.10
2007,05,22,14,02,13.20
2007,05,22,14,03,13.20
2007,05,22,14,04,13.20
2007,05,22,14,05,13.10
2007,05,22,14,06,13.10
2007,05,22,14,07,13.20
2007,05,22,14,08,13.10
2007,05,22,14,09,13.10
2007,05,22,14,10,13.10
2007,05,22,14,11,13.20
2007,05,22,14,12,13.30
2007,05,22,14,13,13.30
2007,05,22,14,14,13.40
2007,05,22,14,15,13.50
2007,05,22,14,16,13.50
2007,05,22,14,17,13.60
2007,05,22,14,18,13.60
2007,05,22,14,19,13.60
2007,05,22,14,20,13.70
2007,05,22,14,21,13.80
2007,05,22,14,22,13.90
2007,05,22,14,23,14.00
2007,05,22,14,24,14.10
2007,05,22,14,25,14.20
2007,05,22,14,26,14.20
2007,05,22,14,27,14.30
2007,05,22,14,28,14.30
2007,05,22,14,29,14.30
2007,05,22,14,30,14.30
2007,05,22,14,31,14.30
2007,05,22,14,32,14.30
2007,05,22,14,33,14.30
2007,05,22,14,34,14.10
2007,05,22,14,35,14.00
2007,05,22,14,36,13.90
2007,05,22,14,37,14.00
2007,05,22,14,38,14.10
2007,05,22,14,39,14.10
2007,05,22,14,40,14.10
2007,05,22,14,41,14.10
2007,05,22,14,42,14.10
2007,05,22,14,43,14.20
2007,05,22,14,44,14.20
2007,05,22,14,45,14.20
2007,05,22,14,46,14.10
2007,05,22,14,47,14.10
2007,05,22,14,48,14.10
2007,05,22,14,49,14.00
2007,05,22,14,50,14.10
2007,05,22,14,51,14.10
2007,05,22,14,52,14.10
2007,05,22,14,53,14.10
2007,05,22,14,54,14.10
2007,05,22,14,55,14.20
2007,05,22,14,56,14.20
2007,05,22,14,57,14.10
2007,05,22,14,58,14.10
2007,05,22,14,59,14.00
2007,05,22,15,00,14.00
2007,05,22,15,01,14.00
2007,05,22,15,02,14.00
2007,05,22,15,03,14.00
2007,05,22,15,04,14.00
2007,05,22,15,05,13.90
2007,05,22,15,06,13.90
2007,05,22,15,07,14.00
2007,05,22,15,08,14.10
2007,05,22,15,09,14.10
2007,05,22,15,10,14.10
2007,05,22,15,11,14.10
2007,05,22,15,12,14.00
2007,05,22,15,13,14.10
2007,05,22,15,14,14.20
2007,05,22,15,15,14.20
2007,05,22,15,16,14.20
2007,05,22,15,17,14.20
2007,05,22,15,18,14.30
2007,05,22,15,19,14.40
2007,05,22,15,20,14.40
2007,05,22,15,21,14.50
2007,05,22,15,22,14.60
2007,05,22,15,23,14.80
2007,05,22,15,24,14.80
2007,05,22,15,25,15.00
2007,05,22,15,26,15.00
2007,05,22,15,27,15.00
2007,05,22,15,28,15.00
2007,05,22,15,29,15.00
2007,05,22,15,30,15.00
2007,05,22,15,31,14.90
2007,05,22,15,32,15.00
2007,05,22,15,33,15.00
2007,05,22,15,34,15.00
2007,05,22,15,35,15.00
2007,05,22,15,36,14.90
2007,05,22,15,37,14.90
2007,05,22,15,38,14.80
2007,05,22,15,39,14.80
2007,05,22,15,40,14.80
2007,05,22,15,41,14.80
2007,05,22,15,42,14.80
2007,05,22,15,43,14.80
2007,05,22,15,44,14.70
2007,05,22,15,45,14.50
2007,05,22,15,46,14.40
2007,05,22,15,47,14.40
2007,05,22,15,48,14.40
2007,05,22,15,49,14.40
2007,05,22,15,50,14.30
2007,05,22,15,51,14.30
2007,05,22,15,52,14.30
2007,05,22,15,53,14.20
2007,05,22,15,54,14.30
2007,05,22,15,55,14.30
2007,05,22,15,56,14.20
2007,05,22,15,57,14.20
2007,05,22,15,58,14.20
2007,05,22,15,59,14.20
2007,05,22,16,00,14.20
2007,05,22,16,01,14.10
2007,05,22,16,02,14.10
2007,05,22,16,03,14.10
2007,05,22,16,04,14.00
2007,05,22,16,05,13.90
2007,05,22,16,06,13.90
2007,05,22,16,07,14.00
2007,05,22,16,08,13.90
2007,05,22,16,09,14.00
2007,05,22,16,10,14.00
2007,05,22,16,11,14.00
2007,05,22,16,12,14.10
2007,05,22,16,13,14.10
2007,05,22,16,14,14.10
2007,05,22,16,15,14.30
2007,05,22,16,16,14.40
2007,05,22,16,17,14.50
2007,05,22,16,18,14.60
2007,05,22,16,19,14.70
2007,05,22,16,20,14.80
2007,05,22,16,21,14.90
2007,05,22,16,22,15.00
2007,05,22,16,23,15.00
2007,05,22,16,24,15.00
2007,05,22,16,25,15.20
2007,05,22,16,26,15.30
2007,05,22,16,27,15.30
2007,05,22,16,28,15.30
2007,05,22,16,29,15.30
2007,05,22,16,30,15.30
2007,05,22,16,31,15.30
2007,05,22,16,32,15.40
2007,05,22,16,33,15.40
2007,05,22,16,34,15.40
2007,05,22,16,35,15.50
2007,05,22,16,36,15.50
2007,05,22,16,37,15.40
2007,05,22,16,38,15.30
2007,05,22,16,39,15.30
2007,05,22,16,40,15.30
2007,05,22,16,41,15.30
2007,05,22,16,42,15.30
2007,05,22,16,43,15.40
2007,05,22,16,44,15.50
2007,05,22,16,45,15.60
2007,05,22,16,46,15.70
2007,05,22,16,47,15.80
2007,05,22,16,48,15.90
2007,05,22,16,49,16.00
2007,05,22,16,50,16.10
2007,05,22,16,51,16.10
2007,05,22,16,52,16.20
2007,05,22,16,53,16.20
2007,05,22,16,54,16.30
2007,05,22,16,55,16.20
2007,05,22,16,56,16.20
2007,05,22,16,57,16.20
2007,05,22,16,58,16.20
2007,05,22,16,59,16.20
2007,05,22,17,00,16.20
2007,05,22,17,01,16.20
2007,05,22,17,02,16.30
2007,05,22,17,03,16.30
2007,05,22,17,04,16.30
2007,05,22,17,05,16.30
2007,05,22,17,06,16.30
2007,05,22,17,07,16.20
2007,05,22,17,08,16.10
2007,05,22,17,09,16.10
2007,05,22,17,10,16.10
2007,05,22,17,11,16.10
2007,05,22,17,12,16.10
2007,05,22,17,13,16.20
2007,05,22,17,14,16.10
2007,05,22,17,15,16.10
2007,05,22,17,16,16.10
2007,05,22,17,17,16.10
2007,05,22,17,18,16.10
2007,05,22,17,19,16.10
2007,05,22,17,20,16.00
2007,05,22,17,21,15.90
2007,05,22,17,22,15.90
2007,05,22,17,23,15.90
2007,05,22,17,24,15.90
2007,05,22,17,25,15.90
2007,05,22,17,26,15.90
2007,05,22,17,27,15.90
2007,05,22,17,28,15.90
2007,05,22,17,29,15.90
2007,05,22,17,30,16.00
2007,05,22,17,31,15.90
2007,05,22,17,32,15.90
2007,05,22,17,33,15.90
2007,05,22,17,34,15.90
2007,05,22,17,35,15.90
2007,05,22,17,36,15.90
2007,05,22,17,37,16.00
2007,05,22,17,38,16.00
2007,05,22,17,39,16.00
2007,05,22,17,40,16.10
2007,05,22,17,41,16.20
2007,05,22,17,42,16.10
2007,05,22,17,43,16.10
2007,05,22,17,44,16.00